IRIDIUM 80 [+]

Last updated on Thu Jul 12 2018 00:20:42 GMT+0000 (Coordinated Universal Time)

1 25469U 98051C 18192.49699168 -.00000045 00000-0 -22992-4 0 9991 2 25469 86.3966 219.3345 0002849 86.2102 24.6085 14.34221532 38637
UTC large
Height (km)
Speed (km/s)
/
Latitude / Longitude
Inclination (degrees)
Orbital Period (minutes)
Azimuth
Elevation
Range (km)
Doppler Factor

Next 0 passes for location: London (51.5072 / 0.1276)

Sorry there are no passes over London.